[[{"header":{"parameterUnit":"m.s-1","parameterCategory":1,"la1":30.2991,"la2":30.254,"lo1":-89.0895,"lo2":-89.0444,"dy":0.0017,"dx":0.0017,"nx":28,"ny":28,"refTime":"2024-04-02T21:00:00:Z","depth":0,"parameterNumber":2,"parameterNumberName":"U-component_of_WINDS"},"data":[0,0,0,0,0,0,0,0,0,0,0,0,0,0,0,0,0,0,0,0,0,0,0,0,0,0,0,0,0,0,0,0,0,0,0,0,0,0,0,0,0,0,0,0,0,0,0,0,0,0,0,0,0,0,0,0,0,0,-3.2956,-3.2956,0,-3.3015,-3.3016,-3.3016,-3.298,-3.2978,-3.2977,-3.2975,-3.3036,-3.304,-3.3043,0,0,0,0,0,0,0,0,0,0,0,0,0,-3.2813,-3.2816,-3.2955,-3.2956,-3.2957,-3.3015,-3.3016,-3.3017,-3.298,-3.2978,-3.2976,-3.2974,-3.3035,-3.3039,-3.3043,0,0,0,0,0,0,0,0,0,0,0,0,0,-3.2874,-3.2817,-3.2955,-3.2946,-3.2946,-3.3015,-3.3016,-3.3017,-3.2981,-3.2978,-3.2976,-3.2973,-3.3034,-3.3039,-3.3044,-3.3126,0,0,-3.3059,-3.3061,0,0,0,0,0,0,0,0,-3.2871,-3.2879,-3.2947,-3.2947,-3.2947,-3.2987,-3.2988,-3.3053,-3.2981,-3.2967,-3.2975,-3.2972,-3.3022,-3.3028,-3.3045,-3.3128,-3.3131,-3.3059,-3.3062,-3.3064,-3.3065,0,0,0,0,0,0,0,-3.2866,-3.2876,-3.2979,-3.2948,-3.2948,-3.294,-3.2945,-3.3,-3.3009,-3.2968,-3.2966,-3.2973,-3.3022,-3.304,-3.3046,-3.3132,-3.3059,-3.3063,-3.3066,-3.3068,-3.3287,-3.329,0,0,0,0,0,0,-3.2863,-3.2873,-3.2977,-3.2981,-3.2901,-3.2944,-3.2951,-3.2977,-3.3008,-3.301,-3.2976,-3.2972,-3.3033,-3.304,-3.3048,-3.3145,-3.3064,-3.3069,-3.3071,-3.3284,-3.3288,-3.3291,0,0,0,0,0,0,-3.286,-3.2872,-3.2975,-3.2926,-3.2939,-3.2949,-3.2979,-3.2979,-3.2998,-3.3013,-3.3015,-3.2993,-3.3031,-3.3041,-3.3107,-3.3147,-3.3071,-3.3075,-3.3281,-3.3285,-3.3289,-3.3341,0,0,0,0,0,0,-3.2856,-3.2871,-3.2902,-3.2927,-3.2942,-3.3032,-3.2982,-3.2982,-3.3006,-3.3001,-3.303,-3.3032,-3.303,-3.31,-3.3112,-3.3152,-3.3079,-3.3277,-3.3283,-3.3288,-3.3335,-3.3346,-3.3356,0,0,0,0,0,-3.2851,-3.2914,-3.2903,-3.2916,-3.298,-3.3034,-3.3042,-3.3038,-3.301,-3.304,-3.3051,-3.3031,-3.3142,-3.3107,-3.312,-3.3162,-3.3274,-3.3281,-3.3287,-3.3331,-3.3344,-3.3355,0,0,0,0,0,0,-3.2892,-3.2917,-3.2905,-3.2979,-3.3005,-3.3028,-3.3066,-3.3053,-3.3087,-3.3081,-3.3076,-3.3083,-3.3151,-3.3164,-3.3125,-3.3244,-3.3204,-3.3213,-3.3232,-3.3245,-3.3255,-3.3249,-3.3083,0,0,0,0,0,-3.291,-3.2951,-3.2971,-3.3034,-3.3048,-3.3055,-3.3079,-3.3074,-3.3101,-3.3111,-3.3126,-3.3153,-3.3194,-3.3221,-3.3259,-3.3339,-3.3344,-3.3375,-3.3385,-3.3394,-3.34,-3.3444,-3.3457,-3.3312,-3.3312,-3.3312,0,0,-3.2946,-3.2965,-3.2991,-3.3043,-3.3062,-3.3106,-3.3064,-3.3112,-3.3144,-3.3119,-3.318,-3.3194,-3.3224,-3.3296,-3.3329,-3.3309,-3.3443,-3.3402,-3.3408,-3.3411,-3.3452,-3.3465,-3.3478,-3.3317,-3.3316,-3.3315,0,0,-3.3034,-3.3054,-3.3107,-3.3129,-3.3159,-3.3164,-3.3178,-3.3204,-3.3211,-3.3274,-3.3255,-3.3295,-3.3366,-3.3388,-3.3408,-3.3509,-3.3492,-3.3522,-3.3573,-3.3615,-3.3627,-3.3637,-3.3671,-3.3684,-3.353,-3.353,-3.353,0,-3.3075,-3.314,-3.3137,-3.3186,-3.3209,-3.319,-3.3245,-3.3266,-3.3307,-3.3324,-3.3302,-3.3391,-3.341,-3.3487,-3.3512,-3.353,-3.3545,-3.3517,-3.3625,-3.3636,-3.3645,-3.3678,-3.3691,-3.3534,-3.3533,-3.3533,-3.3533,0,-3.3188,-3.3234,-3.3274,-3.3315,-3.3343,-3.3395,-3.3401,-3.3431,-3.3425,-3.3433,-3.3498,-3.3521,-3.3564,-3.3583,-3.3578,-3.3661,-3.3647,-3.3626,-3.3584,-3.3662,-3.3692,-3.3705,-3.3538,-3.3537,-3.3536,-3.3535,0,0,-3.3299,-3.334,-3.3355,-3.3373,-3.3408,-3.3443,-3.3496,-3.3538,-3.3562,-3.3594,-3.3637,-3.3699,-3.368,-3.3703,-3.3701,-3.3739,-3.3816,-3.3712,-3.3713,-3.3729,-3.3908,-3.3921,-3.3935,-3.3807,-3.3809,-3.3811,-3.3904,0,-3.3387,-3.3477,-3.3478,-3.3561,-3.3603,-3.3588,-3.3633,-3.366,-3.367,-3.3708,-3.372,-3.3762,-3.3735,-3.3749,-3.3786,-3.3798,-3.3851,-3.3792,-3.3846,-3.3848,-3.3835,-3.3952,-3.3966,-3.4052,-3.3916,-3.3918,-3.392,0,-3.3501,-3.3536,-3.3623,-3.3652,-3.367,-3.3711,-3.375,-3.3787,-3.3818,-3.3822,-3.3851,-3.3844,-3.3898,-3.3858,-3.3933,-3.3893,-3.3916,-3.3927,-3.393,-3.3932,-3.3886,-3.3954,-3.408,-3.4092,-3.3939,-3.3938,-3.3936,0,-3.357,-3.364,-3.37,-3.3717,-3.3754,-3.3783,-3.3799,-3.3828,-3.3854,-3.3889,-3.3906,-3.3948,-3.397,-3.4003,-3.4008,-3.3979,-3.4084,-3.4044,-3.4088,-3.4088,-3.4107,-3.4105,-3.4235,-3.4128,-3.4128,-3.4127,-3.4127,0,-3.3666,-3.372,-3.3732,-3.3769,-3.3829,-3.3832,-3.3891,-3.3906,-3.3932,-3.3972,-3.3963,-3.4001,-3.4007,-3.4047,-3.4053,-3.4113,-3.4124,-3.4129,-3.4129,-3.4128,-3.4127,-3.414,-3.4133,-3.4131,-3.413,-3.4129,-3.4129,0,-3.3752,-3.3762,-3.3827,-3.3858,-3.3867,-3.3909,-3.3935,-3.3972,-3.3983,-3.4034,-3.4046,-3.4063,-3.411,-3.412,-3.4176,-3.4179,-3.4251,-3.4247,-3.424,-3.4239,-3.4281,-3.4276,-3.4421,-3.444,-3.4323,-3.4324,-3.4325,0,-3.381,-3.3851,-3.3886,-3.3913,-3.3931,-3.3974,-3.4,-3.4006,-3.4034,-3.4074,-3.4106,-3.4152,-3.4188,-3.4265,-3.4283,-3.4326,-3.4321,-3.4369,-3.4327,-3.4324,-3.4318,-3.4314,-3.4318,-3.4375,-3.4377,-3.4378,-3.4379,0,-3.3913,-3.3917,-3.3955,-3.3997,-3.4029,-3.4062,-3.4093,-3.4116,-3.4126,-3.4159,-3.4207,-3.4236,-3.4294,-3.434,-3.4383,-3.4402,-3.4392,-3.4393,-3.4405,-3.4402,-3.4395,-3.4397,-3.4259,-3.4388,-3.4387,-3.4386,-3.4386,-3.4386,-3.3985,-3.402,-3.4051,-3.4095,-3.412,-3.415,-3.4185,-3.4202,-3.4242,-3.4288,-3.4291,-3.4343,-3.4375,-3.4433,-3.4454,-3.4496,-3.4481,-3.4499,-3.4503,-3.4506,-3.4509,-3.4392,-3.4504,-3.4504,-3.4504,-3.4504,-3.4504,0,-3.4084,-3.4104,-3.4145,-3.4189,-3.4225,-3.4215,-3.425,-3.4279,-3.4325,-3.4356,-3.4394,-3.445,-3.4495,-3.4518,-3.4563,-3.4592,-3.4589,-3.4604,-3.46,-3.4604,-3.4521,-3.4505,-3.4606,-3.4605,-3.4605,-3.4605,-3.4605,-3.4605,-3.414,-3.4199,-3.4208,-3.428,-3.43,-3.4351,-3.4372,-3.44,-3.4425,-3.4488,-3.4525,-3.4541,-3.4569,-3.4616,-3.4658,-3.4664,-3.468,-3.4696,-3.4699,-3.462,-3.461,-3.46,-3.4584,-3.47,-3.47,-3.4779,-3.4779,-3.478]},{"header":{"parameterUnit":"m.s-1","parameterCategory":1,"la1":30.2991,"la2":30.254,"lo1":-89.0895,"lo2":-89.0444,"dy":0.0017,"dx":0.0017,"nx":28,"ny":28,"refTime":"2024-04-02T21:00:00:Z","depth":0,"parameterNumber":3,"parameterNumberName":"V-component_of_WINDS"},"data":[0,0,0,0,0,0,0,0,0,0,0,0,0,0,0,0,0,0,0,0,0,0,0,0,0,0,0,0,0,0,0,0,0,0,0,0,0,0,0,0,0,0,0,0,0,0,0,0,0,0,0,0,0,0,0,0,0,0,2.8738,2.8738,0,2.8789,2.879,2.8791,2.8874,2.8875,2.8877,2.8878,2.893,2.893,2.893,0,0,0,0,0,0,0,0,0,0,0,0,0,2.8712,2.8712,2.8738,2.8738,2.8739,2.8789,2.879,2.8791,2.8873,2.8875,2.8877,2.8879,2.893,2.893,2.893,0,0,0,0,0,0,0,0,0,0,0,0,0,2.8739,2.8712,2.8737,2.8786,2.8791,2.8789,2.879,2.8791,2.8873,2.8875,2.8878,2.888,2.893,2.893,2.893,2.8884,0,0,2.893,2.893,0,0,0,0,0,0,0,0,2.8738,2.874,2.8778,2.8783,2.8788,2.8827,2.88,2.8822,2.8872,2.8842,2.8878,2.8881,2.8894,2.8897,2.8902,2.8887,2.8889,2.893,2.893,2.893,2.893,0,0,0,0,0,0,0,2.8736,2.8739,2.8758,2.8779,2.8785,2.8806,2.8813,2.8805,2.8854,2.8845,2.8851,2.8856,2.8897,2.8902,2.8904,2.889,2.893,2.893,2.893,2.893,2.8845,2.8843,0,0,0,0,0,0,2.8727,2.8736,2.8756,2.876,2.8768,2.8805,2.8812,2.8813,2.8855,2.8863,2.8854,2.886,2.8901,2.8903,2.8906,2.8859,2.893,2.893,2.893,2.8847,2.8844,2.8842,0,0,0,0,0,0,2.8726,2.8728,2.8754,2.875,2.8755,2.8803,2.8803,2.8812,2.8817,2.8862,2.8871,2.8849,2.8902,2.8906,2.889,2.8862,2.893,2.893,2.885,2.8846,2.8843,2.8762,0,0,0,0,0,0,2.8725,2.8727,2.8709,2.8749,2.8755,2.8737,2.8801,2.8812,2.8817,2.8825,2.886,2.8868,2.8904,2.889,2.889,2.8863,2.893,2.8852,2.8848,2.8844,2.8768,2.8756,2.8747,0,0,0,0,0,2.8723,2.8683,2.8708,2.871,2.8734,2.8735,2.8739,2.8782,2.8814,2.8798,2.8827,2.8867,2.8864,2.8887,2.8889,2.8861,2.8854,2.8849,2.8844,2.8772,2.8759,2.8747,0,0,0,0,0,0,2.8638,2.8689,2.8717,2.8688,2.8707,2.8749,2.873,2.8765,2.8775,2.8782,2.8835,2.8842,2.8821,2.8839,2.8864,2.8821,2.8866,2.8861,2.881,2.8798,2.8788,2.8785,2.893,0,0,0,0,0,2.8616,2.8612,2.8657,2.8627,2.8636,2.8681,2.8683,2.8715,2.8736,2.8745,2.8773,2.8792,2.8796,2.8798,2.8803,2.877,2.8781,2.8752,2.8741,2.8732,2.8728,2.8716,2.8705,2.8825,2.8825,2.8825,0,0,2.8569,2.8597,2.8592,2.8611,2.8629,2.8626,2.8687,2.868,2.8679,2.8743,2.8732,2.8753,2.8778,2.8755,2.8746,2.8769,2.8697,2.8726,2.8719,2.872,2.871,2.8699,2.8688,2.8822,2.8823,2.8823,0,0,2.8485,2.8504,2.8484,2.8502,2.8529,2.856,2.8555,2.8593,2.861,2.8599,2.8649,2.8648,2.8653,2.867,2.8679,2.8605,2.8643,2.8605,2.8552,2.8539,2.853,2.8522,2.8499,2.849,2.86,2.86,2.86,0,2.8425,2.8422,2.8468,2.846,2.8469,2.8528,2.8509,2.8524,2.8551,2.8556,2.8582,2.8593,2.8613,2.8597,2.8579,2.8583,2.8581,2.8602,2.8527,2.852,2.8513,2.8492,2.8483,2.8595,2.8596,2.8596,2.8597,0,2.8348,2.8345,2.8325,2.8353,2.8359,2.8345,2.8391,2.8391,2.8423,2.8452,2.8442,2.8469,2.8484,2.8481,2.8511,2.847,2.8485,2.8518,2.8564,2.8496,2.8478,2.847,2.8589,2.8591,2.8592,2.8593,0,0,2.8211,2.8266,2.8259,2.8274,2.831,2.8309,2.8299,2.8314,2.8315,2.8332,2.8327,2.8331,2.8364,2.8374,2.8407,2.8395,2.834,2.8431,2.8433,2.8416,2.8301,2.8278,2.8267,2.8364,2.8363,2.8362,2.83,0,2.8137,2.8123,2.8166,2.8142,2.8142,2.82,2.8192,2.8214,2.824,2.8245,2.8274,2.8278,2.8318,2.8326,2.8317,2.8348,2.8318,2.8353,2.8362,2.8362,2.8357,2.8257,2.8232,2.8172,2.8292,2.8291,2.829,0,2.8048,2.8063,2.8039,2.8081,2.8082,2.8074,2.8094,2.8097,2.8123,2.8144,2.8157,2.8196,2.8191,2.8233,2.8228,2.8251,2.8257,2.8273,2.8272,2.8277,2.8324,2.8262,2.8154,2.8146,2.8278,2.8279,2.828,0,2.7955,2.7969,2.7959,2.7969,2.8015,2.8009,2.8028,2.8057,2.8065,2.8082,2.8088,2.8103,2.8112,2.8123,2.8166,2.8192,2.8157,2.8202,2.8176,2.8175,2.8168,2.8168,2.8062,2.8166,2.8166,2.8166,2.8166,0,2.787,2.7854,2.7918,2.7912,2.7897,2.7947,2.7931,2.7955,2.7981,2.7982,2.8031,2.8031,2.8085,2.8091,2.8124,2.8117,2.8119,2.8137,2.8147,2.8135,2.8133,2.8142,2.8148,2.8164,2.8164,2.8165,2.8165,0,2.7765,2.7807,2.7799,2.7845,2.7856,2.7843,2.7883,2.788,2.791,2.791,2.7913,2.7961,2.7971,2.8014,2.8033,2.8055,2.8038,2.8054,2.803,2.8037,2.8009,2.8013,2.7907,2.7898,2.8004,2.8003,2.8002,0,2.7709,2.7699,2.7744,2.7749,2.7766,2.7771,2.7781,2.783,2.7837,2.7869,2.7862,2.7876,2.7891,2.7904,2.7941,2.7957,2.7976,2.7938,2.7978,2.7968,2.798,2.7981,2.7982,2.793,2.7928,2.7927,2.7926,0,2.7607,2.7629,2.764,2.766,2.7669,2.7686,2.7706,2.7707,2.7762,2.7768,2.778,2.7791,2.7812,2.7827,2.7849,2.787,2.7908,2.7913,2.7909,2.7898,2.7885,2.7896,2.801,2.7916,2.7917,2.7918,2.7918,2.7919,2.7528,2.7523,2.7555,2.7567,2.7588,2.7606,2.7607,2.7638,2.7649,2.7671,2.7699,2.7708,2.7738,2.7773,2.779,2.7799,2.782,2.7812,2.7811,2.7809,2.7805,2.7881,2.7802,2.7803,2.7803,2.7803,2.7804,0,2.7432,2.7456,2.7466,2.7494,2.7504,2.7539,2.7564,2.7571,2.7578,2.7603,2.7617,2.7632,2.7646,2.7685,2.7704,2.7704,2.7722,2.7707,2.7709,2.7714,2.7783,2.7787,2.7692,2.7692,2.7692,2.7692,2.7692,2.7692,2.7383,2.7379,2.7405,2.7412,2.7436,2.7446,2.7458,2.7476,2.7497,2.7512,2.7525,2.755,2.7582,2.7604,2.762,2.7631,2.7637,2.7617,2.7634,2.7698,2.7709,2.7719,2.7723,2.7617,2.7617,2.7566,2.7565,2.7565]}]]